DELTA 1 R/B, 341

Orbit data source: Space-Track

DELTA 1 R/B, 341 is space debris in LEO originally from a launch on Tue, 10 Jul 1962 UTC launched from the Air Force Eastern Test Range (AFETR). Debris objects in space refer to the collection of defunct objects orbiting the Earth. Examples of debris include non-operational satellites, rocket bodies, and fragments generated from explosions, collisions, or faulty payload assembly.

Loading next visibility...
Identifier
341, 1962-029B
Orbit
LEO
Country
Flag of USUS
Related business
Manufacturer
ABL
Mission
Spacecraft
Bus & Motor
ALTAIR, Unknown motor
Mass
24 kg wet, 24 kg dry
Launch date (UTC)
1962-07-10 (63 years ago)
Launch vehicle
Unknown
Launch site
Air Force Eastern Test Range (AFETR)
Object type
Payload
Rocket body
Debris
Shape & HBR
Unknown
Radar Cross Section
Medium (>0.1 m² and <1 m²)

Expand to show TLE details & history
Last TLE update: 1 day ago

TLE from 1 day ago
0 DELTA 1 R/B
1 00341U 62029B   25349.36380537  .00000007  00000-0  20477-3 0  9995
2 00341  44.7976 198.6319 2425622 254.3163 302.4387  9.14291461118319
Epoch: 2025-12-15T08:43Z
TLE epoch observation values (Epoch: 2025-12-15T08:43:52.783Z)
Latitude
7.13263°
Longitude
156.19083°
Altitude
2,506.665 km
Speed
6.963 km/s
True Right ascension
00h 45m 41s
True Declination
7° 05' 55"
Sunlit
Object was in daylight at epoch
Visualization orbit readout
Latitude
Unknown
Longitude
Unknown
Altitude
Unknown
Speed
Unknown
Apparent Right ascension
Unknown
Apparent Declination
Unknown
Sunlit
N/A
Visualization observer readout
Local Sidereal Time
09:30:34
Azimuth
Unknown
Elevation
Unknown
Doppler factor
Unknown
Orbital elements
Apogee altitude
5,627.571 km
Perigee altitude
940.271 km
Semi-major axis
9,662.058 km
Eccentricity
0.24256
Inclination
44.7976°
RAAN
198.6319°
Arg. of periapsis
254.3163°
True anomaly
275.51206°
Mean anomaly
302.4387°
Eccentric anomaly
289.32387°
Mean motion
2.28528 °/min
Orbital period
157.53 mins
BSTAR
0.00020477
Loading maneuver chart data...
Computing Atmospheric mass density...
Loading historical data...
Loading historical data...
Loading historical data...
Loading historical data...
Loading historical data...
Loading historical data...
Loading historical data...
Other satellites on launch #29 in the year 1962 (1962-07-10 UTC)

Documentation

Showing up to 5 results
|